• In Austria
  • List of Countries
  • For 7 days
  • Water Temperature
  • Satellite Maps
  • Weather Map
  • News
  • Weather Widgets
  • user-avatar
    Login

    Hourly Weather Meknes

    Today, 19 September, Wednesday

    Time Temperature Precipitation Wind Pressure Humidity
    00:00 +27°C° 0 mm 1 mps 719 mmHg 62%
    01:00 +26°C° 0 mm 1 mps 719 mmHg 62%
    02:00 +26°C° 0 mm 1 mps 719 mmHg 62%
    03:00 +26°C° 0 mm 1 mps 719 mmHg 62%
    04:00 +26°C° 0 mm 1 mps 719 mmHg 62%
    05:00 +26°C° 0 mm 1 mps 719 mmHg 62%
    06:00 +25°C° 0 mm 1 mps 719 mmHg 62%
    07:00 +27°C° 0 mm 1 mps 719 mmHg 57%
    08:00 +28°C° 0 mm 1 mps 719 mmHg 51%
    09:00 +29°C° 0 mm 1 mps 720 mmHg 46%
    10:00 +31°C° 0 mm 1 mps 720 mmHg 40%
    11:00 +32°C° 0 mm 1 mps 720 mmHg 35%
    12:00 +34°C° 0 mm 1 mps 720 mmHg 29%
    13:00 +35°C° 0 mm 2 mps 720 mmHg 27%
    14:00 +36°C° 0 mm 2 mps 720 mmHg 25%
    15:00 +36°C° 0 mm 3 mps 719 mmHg 23%
    16:00 +36°C° 0 mm 4 mps 719 mmHg 26%
    17:00 +35°C° 0 mm 4 mps 719 mmHg 28%
    18:00 +34°C° 0 mm 4 mps 719 mmHg 31%
    19:00 +33°C° 0 mm 3 mps 720 mmHg 36%
    20:00 +31°C° 0 mm 2 mps 720 mmHg 41%
    21:00 +29°C° 0 mm 1 mps 720 mmHg 46%
    22:00 +29°C° 0 mm 1 mps 720 mmHg 47%
    23:00 +29°C° 0 mm 1 mps 720 mmHg 48%

    Tomorrow, 20 September, Thursday

    Time Temperature Precipitation Wind Pressure Humidity
    00:00 +28°C° 0 mm 1 mps 720 mmHg 50%
    01:00 +28°C° 0 mm 1 mps 719 mmHg 50%
    02:00 +28°C° 0 mm 1 mps 719 mmHg 50%
    03:00 +26°C° 0 mm 0 mps 719 mmHg 50%
    04:00 +27°C° 0 mm 1 mps 719 mmHg 51%
    05:00 +27°C° 0 mm 1 mps 719 mmHg 52%
    06:00 +27°C° 0 mm 1 mps 719 mmHg 52%
    07:00 +28°C° 0 mm 1 mps 719 mmHg 49%
    08:00 +29°C° 0 mm 1 mps 719 mmHg 45%
    09:00 +30°C° 0 mm 1 mps 720 mmHg 41%
    10:00 +31°C° 0 mm 1 mps 719 mmHg 37%
    11:00 +32°C° 0 mm 2 mps 719 mmHg 33%
    12:00 +35°C° 0 mm 2 mps 719 mmHg 29%
    13:00 +35°C° 0 mm 2 mps 719 mmHg 28%
    14:00 +36°C° 0 mm 3 mps 719 mmHg 27%
    15:00 +36°C° 0 mm 3 mps 718 mmHg 26%
    16:00 +35°C° 0 mm 4 mps 718 mmHg 29%
    17:00 +34°C° 0 mm 4 mps 718 mmHg 32%
    18:00 +33°C° 0 mm 5 mps 718 mmHg 35%
    19:00 +32°C° 0 mm 4 mps 718 mmHg 39%
    20:00 +29°C° 0 mm 3 mps 719 mmHg 44%
    21:00 +28°C° 0 mm 2 mps 719 mmHg 48%
    22:00 +28°C° 0 mm 2 mps 719 mmHg 49%
    23:00 +27°C° 0 mm 2 mps 719 mmHg 51%

    Day after tomorrow, 21 September, Friday

    Time Temperature Precipitation Wind Pressure Humidity
    00:00 +27°C° 0 mm 1 mps 719 mmHg 52%
    01:00 +26°C° 0 mm 1 mps 718 mmHg 53%
    02:00 +26°C° 0 mm 1 mps 718 mmHg 54%
    03:00 +26°C° 0 mm 1 mps 718 mmHg 55%
    04:00 +26°C° 0 mm 1 mps 718 mmHg 56%
    05:00 +23°C° 0 mm 0 mps 718 mmHg 57%
    06:00 +23°C° 0 mm 0 mps 718 mmHg 58%
    07:00 +26°C° 0 mm 1 mps 718 mmHg 54%
    08:00 +27°C° 0 mm 1 mps 719 mmHg 50%
    09:00 +28°C° 0 mm 1 mps 719 mmHg 46%
    10:00 +30°C° 0 mm 1 mps 719 mmHg 42%
    11:00 +31°C° 0 mm 2 mps 719 mmHg 37%
    12:00 +34°C° 0 mm 2 mps 719 mmHg 33%
    13:00 +34°C° 0 mm 2 mps 719 mmHg 31%
    14:00 +35°C° 0 mm 3 mps 718 mmHg 30%
    15:00 +36°C° 0 mm 3 mps 718 mmHg 28%
    16:00 +35°C° 0 mm 3 mps 718 mmHg 29%
    17:00 +35°C° 0 mm 4 mps 718 mmHg 30%
    18:00 +34°C° 0 mm 4 mps 718 mmHg 31%
    19:00 +33°C° 0 mm 3 mps 718 mmHg 35%
    20:00 +31°C° 0 mm 3 mps 719 mmHg 39%
    21:00 +30°C° 0 mm 2 mps 719 mmHg 44%
    22:00 +29°C° 0 mm 2 mps 719 mmHg 46%
    23:00 +28°C° 0 mm 1 mps 719 mmHg 47%

    22 September, Saturday

    Time Temperature Precipitation Wind Pressure Humidity
    00:00 +28°C° 0 mm 1 mps 719 mmHg 49%
    01:00 +28°C° 0 mm 1 mps 719 mmHg 49%
    02:00 +27°C° 0 mm 1 mps 718 mmHg 49%
    03:00 +27°C° 0 mm 1 mps 718 mmHg 48%
    04:00 +27°C° 0 mm 1 mps 718 mmHg 48%
    05:00 +26°C° 0 mm 1 mps 718 mmHg 47%
    06:00 +26°C° 0 mm 2 mps 718 mmHg 46%
    07:00 +28°C° 0 mm 2 mps 719 mmHg 41%
    08:00 +29°C° 0 mm 2 mps 719 mmHg 36%
    09:00 +31°C° 0 mm 3 mps 720 mmHg 30%
    10:00 +33°C° 0 mm 3 mps 720 mmHg 27%
    11:00 +35°C° 0 mm 3 mps 720 mmHg 23%
    12:00 +36°C° 0 mm 4 mps 720 mmHg 20%
    13:00 +37°C° 0 mm 4 mps 719 mmHg 18%
    14:00 +37°C° 0 mm 4 mps 719 mmHg 17%
    15:00 +37°C° 0 mm 4 mps 719 mmHg 16%
    16:00 +37°C° 0 mm 4 mps 719 mmHg 17%
    17:00 +36°C° 0 mm 4 mps 719 mmHg 18%
    18:00 +35°C° 0 mm 4 mps 719 mmHg 19%
    19:00 +34°C° 0 mm 4 mps 719 mmHg 21%
    20:00 +33°C° 0 mm 4 mps 720 mmHg 23%
    21:00 +30°C° 0 mm 3 mps 720 mmHg 26%
    22:00 +30°C° 0 mm 3 mps 720 mmHg 28%
    23:00 +29°C° 0 mm 3 mps 719 mmHg 30%

    23 September, Sunday

    Time Temperature Precipitation Wind Pressure Humidity
    00:00 +29°C° 0 mm 3 mps 719 mmHg 32%
    01:00 +28°C° 0 mm 3 mps 719 mmHg 33%
    02:00 +28°C° 0 mm 2 mps 719 mmHg 33%
    03:00 +27°C° 0 mm 2 mps 719 mmHg 34%
    04:00 +27°C° 0 mm 2 mps 719 mmHg 35%
    05:00 +27°C° 0 mm 2 mps 719 mmHg 36%
    06:00 +26°C° 0 mm 2 mps 719 mmHg 36%
    07:00 +28°C° 0 mm 2 mps 719 mmHg 33%
    08:00 +30°C° 0 mm 3 mps 720 mmHg 30%
    09:00 +31°C° 0 mm 3 mps 720 mmHg 27%
    10:00 +34°C° 0 mm 3 mps 720 mmHg 24%
    11:00 +35°C° 0 mm 3 mps 720 mmHg 21%
    12:00 +37°C° 0 mm 2 mps 720 mmHg 18%
    13:00 +37°C° 0 mm 2 mps 720 mmHg 17%
    14:00 +38°C° 0 mm 2 mps 719 mmHg 16%
    15:00 +38°C° 0 mm 2 mps 719 mmHg 15%
    16:00 +37°C° 0 mm 2 mps 719 mmHg 16%
    17:00 +37°C° 0 mm 3 mps 719 mmHg 17%
    18:00 +36°C° 0 mm 3 mps 719 mmHg 18%
    19:00 +35°C° 0 mm 3 mps 719 mmHg 21%
    20:00 +32°C° 0 mm 2 mps 720 mmHg 25%
    21:00 +31°C° 0 mm 2 mps 720 mmHg 28%
    22:00 +31°C° 0 mm 2 mps 720 mmHg 30%
    23:00 +30°C° 0 mm 1 mps 720 mmHg 32%

    24 September, Monday

    Time Temperature Precipitation Wind Pressure Humidity
    00:00 +29°C° 0 mm 1 mps 719 mmHg 34%
    01:00 +29°C° 0 mm 1 mps 719 mmHg 35%
    02:00 +28°C° 0 mm 1 mps 719 mmHg 36%
    03:00 +28°C° 0 mm 1 mps 719 mmHg 37%
    04:00 +27°C° 0 mm 1 mps 719 mmHg 37%
    05:00 +27°C° 0 mm 1 mps 719 mmHg 38%
    06:00 +27°C° 0 mm 1 mps 719 mmHg 38%
    07:00 +28°C° 0 mm 1 mps 719 mmHg 35%
    08:00 +30°C° 0 mm 1 mps 720 mmHg 31%
    09:00 +31°C° 0 mm 1 mps 720 mmHg 28%
    10:00 +33°C° 0 mm 1 mps 720 mmHg 25%
    11:00 +34°C° 0 mm 1 mps 720 mmHg 22%
    12:00 +35°C° 0 mm 1 mps 720 mmHg 18%
    13:00 +36°C° 0 mm 1 mps 720 mmHg 18%
    14:00 +37°C° 0 mm 2 mps 719 mmHg 17%
    15:00 +37°C° 0 mm 2 mps 719 mmHg 16%
    16:00 +37°C° 0 mm 2 mps 719 mmHg 18%
    17:00 +36°C° 0 mm 3 mps 719 mmHg 19%
    18:00 +36°C° 0 mm 3 mps 719 mmHg 21%
    19:00 +34°C° 0 mm 2 mps 719 mmHg 24%
    20:00 +32°C° 0 mm 2 mps 719 mmHg 28%
    21:00 +31°C° 0 mm 1 mps 719 mmHg 31%
    22:00 +30°C° 0 mm 1 mps 719 mmHg 33%
    23:00 +30°C° 0 mm 1 mps 719 mmHg 36%
    Show more